Temperature
23 22 22 22 21 21 21 20 20 20 20 20 20 19 19 19 19 18 18 18 18 18 18 17 17 17 17 17 17 16 16 16 16 16 15 15 15 15 15 14 14 14 14
23 22 22 22 21 21 21 20 20 20 19 19 19 19 19 19 19 18 18 18 18 18 17 17 17 17 17 17 16 16 16 16 16 16 15 15 15 14 14 14 14 14 14
23 22 22 22 21 21 21 21 20 20 19 19 19 19 19 19 19 18 18 18 18 17 17 17 17 17 17 17 16 16 16 16 16 15 15 15 15 14 14 14 14 13 13
23 22 22 22 22 21 21 21 20 20 19 19 19 19 19 19 18 18 18 18 17 17 17 17 17 17 17 16 16 16 16 16 15 15 15 15 14 14 14 14 13 13 13
23 22 22 22 21 21 21 20 20 20 20 19 19 19 19 18 18 18 17 17 17 17 17 17 17 17 16 16 16 16 16 16 15 15 15 15 14 14 14 14 13 13 13
22 22 22 22 21 21 21 21 20 20 19 19 19 19 18 18 18 17 17 17 17 17 17 17 16 16 16 16 16 16 16 15 15 15 15 15 15 14 14 14 13 13 13
22 22 22 22 21 21 21 20 20 20 19 19 19 18 18 18 18 17 17 17 17 16 16 16 16 16 16 15 15 15 15 15 15 15 15 14 14 14 14 13 13 13 13
22 22 22 22 21 21 21 20 20 19 19 19 18 18 18 18 17 17 17 16 16 16 16 16 16 16 15 15 15 15 15 15 15 14 14 14 14 14 14 14 13 13 13
22 22 21 21 21 21 20 20 20 19 19 19 18 18 18 17 17 17 17 16 16 16 16 16 15 15 15 15 15 15 15 15 14 14 14 14 14 14 13 13 13 13 12
21 21 21 21 21 21 20 20 19 19 19 18 18 17 17 17 17 17 16 16 16 16 16 15 15 15 15 15 15 14 15 15 14 14 14 14 14 13 13 13 13 13 13
21 21 20 20 20 20 20 19 19 19 18 18 18 17 17 17 16 16 16 16 16 15 15 15 15 15 15 15 14 14 14 14 14 14 14 14 13 13 13 13 13 13 13
20 20 20 20 19 19 19 19 18 18 18 17 17 17 17 16 16 16 16 15 15 15 15 15 15 14 14 14 14 14 14 14 13 13 13 13 13 13 13 13 13 13 12
19 19 19 19 19 19 18 18 18 18 17 17 17 17 16 16 16 15 15 15 15 15 15 15 14 14 14 14 14 14 14 13 13 13 13 13 13 13 13 13 13 12 12
19 19 19 19 18 18 18 18 17 17 17 17 16 16 16 16 15 15 15 15 15 15 14 14 14 14 14 14 13 13 13 13 13 13 13 13 13 13 12 12 12 12 12
18 18 18 18 17 17 17 17 17 17 16 16 16 16 15 15 15 15 15 15 14 14 14 14 13 13 13 13 13 13 13 13 13 12 12 12 12 12 12 12 12 12 12
18 17 17 17 17 16 16 16 16 16 16 15 15 15 15 15 15 14 14 14 14 14 13 13 13 13 13 13 13 13 13 12 12 12 12 12 12 12 12 12 12 12 12
17 17 16 16 16 16 16 16 16 16 15 15 15 15 15 14 14 14 14 14 13 13 13 13 12 12 12 12 12 12 12 12 12 12 12 12 12 12 11 11 11 11 11
16 16 16 16 16 15 15 15 15 15 15 15 15 14 14 14 14 14 13 13 13 13 12 12 12 12 12 12 12 12 12 12 12 12 12 11 11 11 11 11 11 11 11
15 15 15 15 15 15 15 14 14 14 14 14 14 14 14 14 13 13 13 13 12 12 12 12 12 12 12 12 12 12 12 11 11 11 11 11 11 11 11 11 11 10 10
15 15 15 15 14 14 14 14 14 14 14 14 14 13 13 13 13 13 12 12 12 12 11 11 11 11 11 11 11 11 11 11 11 11 11 11 11 10 10 10 10 10 10
15 14 14 14 14 14 14 14 14 13 13 13 13 13 13 12 12 12 12 12 11 11 11 11 11 11 11 11 11 11 11 11 11 10 10 10 10 10 10 10 10 10 10
14 14 14 14 14 14 14 13 13 13 13 13 13 12 12 12 12 12 11 11 11 11 11 11 11 11 11 11 11 10 11 11 10 10 10 10 10 10 10 9 9 9 9
13 14 13 13 13 13 13 13 13 12 12 12 12 12 12 12 11 11 11 11 11 11 11 10 10 10 10 10 10 10 10 10 10 10 10 10 10 9 9 9 9 9 9
13 13 13 13 13 13 13 12 12 12 12 11 11 11 11 11 11 11 10 10 10 10 10 10 10 10 10 10 10 10 10 10 10 10 10 9 9 9 9 9 9 9 9
12 12 12 12 12 12 12 12 11 11 11 11 10 10 10 10 10 10 10 10 10 10 10 10 9 9 9 9 9 9 9 9 9 9 9 9 9 9 9 9 8 8 8
12 12 12 12 11 11 11 11 11 10 10 10 10 10 10 9 9 9 9 9 9 9 9 9 9 9 9 9 9 9 9 9 9 9 9 9 9 9 9 8 8 8 8
Wind_Speed
10 9 8 7 7 6 5 6 5 4 5 5 5 5 5 4 4 4 4 4 4 3 3 3 3 3 2 2 2 3 3 3 3 2 1 2 3 3 3 4 4 4 4
10 8 8 7 7 6 6 6 5 5 5 5 5 5 5 5 4 5 5 4 4 4 4 3 3 3 2 2 2 3 3 3 4 3 2 2 2 3 3 3 3 3 3
9 9 8 7 7 7 7 6 5 5 5 4 5 5 5 5 5 5 5 4 4 5 4 4 4 3 3 2 3 3 3 3 3 4 3 2 1 2 2 2 2 1 3
9 9 9 9 8 7 6 5 4 5 4 4 5 5 5 4 4 4 4 3 3 3 4 4 4 5 5 4 4 4 4 4 3 4 3 3 2 2 3 2 2 1 2
10 10 10 8 7 6 5 5 4 4 5 4 4 3 4 4 4 4 4 4 4 3 3 3 4 5 6 5 4 4 5 4 4 4 4 3 3 3 4 3 3 2 2
9 9 8 7 6 6 6 5 5 4 3 3 3 3 3 3 4 5 5 4 3 4 4 3 3 3 4 4 5 6 8 7 7 5 4 5 6 5 4 5 4 3 3
8 7 7 7 7 6 6 5 5 4 2 2 2 3 3 4 5 5 5 4 4 3 3 3 3 2 2 2 2 3 6 8 10 8 7 7 7 7 7 6 5 5 5
7 6 6 7 7 6 6 6 5 4 3 3 3 3 3 4 5 5 5 4 3 3 3 4 3 2 2 3 3 3 3 5 7 7 7 8 7 7 8 8 7 5 2
6 6 5 6 6 6 6 6 5 4 3 3 3 3 3 4 5 6 5 3 2 3 3 3 4 3 4 4 3 4 4 4 5 7 8 7 8 9 8 5 4 4 3
4 5 4 5 6 6 6 5 4 3 4 3 3 3 4 4 5 6 6 3 3 2 2 2 4 4 5 5 5 5 5 5 4 3 3 4 5 7 10 8 8 6 3
4 3 3 3 4 5 4 4 4 4 4 3 3 3 3 4 5 6 6 4 4 3 3 3 3 4 5 6 6 6 7 5 3 4 3 3 3 4 5 7 7 7 6
4 3 3 2 2 2 3 3 3 4 4 3 3 2 2 2 3 4 6 6 5 4 4 3 3 5 5 6 5 6 6 4 2 2 3 3 4 4 5 5 7 8 8
3 3 2 2 2 2 2 3 3 3 3 3 3 3 2 2 2 4 6 6 6 4 4 4 4 5 5 5 6 6 4 3 3 3 4 5 5 5 3 2 3 4 5
3 2 2 2 1 1 0 2 3 3 3 3 3 3 2 2 2 2 3 3 4 4 3 3 4 3 3 4 4 4 4 4 4 5 5 4 3 3 3 3 3 3 3
2 3 2 1 1 1 1 1 1 3 4 5 4 4 4 4 6 6 5 4 4 4 2 1 1 1 2 3 3 3 3 3 4 5 4 3 3 4 4 3 3 3 4
3 3 2 2 1 2 2 1 4 2 1 1 4 4 3 5 4 5 6 5 5 5 3 2 3 3 4 4 4 4 3 4 5 5 4 5 5 5 4 3 3 5 6
4 3 3 3 3 3 3 3 1 2 4 3 0 2 3 3 4 4 4 4 4 6 3 4 4 4 4 4 4 4 4 5 4 4 5 5 4 4 4 4 4 4 5
3 3 3 3 3 3 3 3 3 2 1 2 2 2 3 2 2 2 3 3 1 3 4 4 5 4 4 5 5 4 4 3 3 4 4 4 4 4 4 4 5 5 5
2 2 2 3 3 3 3 3 2 2 2 1 1 2 3 2 1 1 3 2 4 4 4 4 4 4 4 4 4 4 4 4 4 4 4 4 4 4 4 5 5 5 5
2 3 3 2 2 2 2 2 2 2 2 2 3 3 1 0 1 1 2 3 3 4 4 4 4 4 4 4 4 4 4 4 4 4 4 4 4 4 5 5 5 5 5
1 2 2 2 2 2 2 3 3 3 3 3 3 3 3 2 3 3 3 3 4 4 4 4 4 3 3 3 3 4 4 4 4 4 5 4 4 5 5 5 5 5 5
1 1 1 2 2 2 2 2 2 2 2 2 1 2 2 1 2 2 3 3 3 3 4 4 3 3 4 4 4 4 4 4 4 5 5 5 5 5 4 4 4 4 4
1 1 1 1 2 2 1 1 2 2 1 1 1 1 1 2 2 2 3 3 2 3 3 3 3 3 3 3 4 4 5 6 5 5 5 5 5 5 4 4 5 5 5
1 2 2 1 2 2 2 1 1 1 1 0 1 0 1 1 2 2 2 2 2 2 2 2 3 4 4 3 2 3 4 5 5 5 5 5 5 5 4 4 5 5 5
2 2 2 2 2 2 2 2 1 2 2 1 1 1 1 1 2 2 2 2 2 2 3 3 2 3 4 4 4 4 5 5 5 4 4 5 5 5 5 5 5 5 5
2 2 2 2 2 2 2 2 2 2 1 1 1 1 1 1 2 2 2 2 3 2 3 2 2 3 3 4 5 4 3 4 4 5 4 4 5 5 4 4 5 4 4
Wind_Direction
191 192 192 193 194 194 198 200 197 197 188 186 187 182 183 188 185 182 196 196 194 211 214 204 222 215 206 210 189 180 173 159 178 218 196 168 153 154 148 151 157 158 170
193 191 195 193 190 194 202 203 198 199 197 193 190 188 194 193 188 188 199 196 197 209 217 207 229 222 208 215 196 193 190 176 168 186 192 172 171 172 160 160 161 167 175
189 188 191 192 191 196 200 199 196 194 197 196 193 194 200 196 194 197 197 196 203 211 208 204 222 214 220 219 209 202 192 178 160 165 178 175 156 151 137 163 166 161 187
185 185 191 196 197 198 195 191 186 182 184 196 205 199 197 195 194 199 193 187 204 220 216 207 211 211 211 209 202 198 183 163 158 157 162 168 167 155 149 172 195 213 214
181 185 193 191 186 181 179 183 181 183 187 191 191 197 201 197 200 196 195 193 200 216 232 225 219 213 209 204 197 190 175 167 163 165 174 171 178 170 190 188 196 209 231
178 188 187 180 180 182 183 182 180 182 186 181 186 193 203 217 209 197 193 196 196 201 223 240 234 219 215 208 201 188 178 176 178 178 185 193 203 197 184 184 181 181 235
177 182 179 178 179 184 183 178 182 183 177 188 199 193 203 216 190 180 184 178 190 205 212 219 229 226 201 201 211 200 196 193 184 183 191 204 202 197 185 191 195 195 215
174 184 182 178 183 185 179 183 184 177 180 196 207 206 206 210 189 180 179 175 188 209 211 203 203 215 215 200 210 219 223 215 204 197 203 211 208 195 191 196 197 200 217
177 187 188 183 183 182 186 188 182 171 180 199 198 200 209 225 200 186 176 176 197 221 219 207 202 203 225 202 197 217 236 246 226 210 209 214 208 194 178 165 171 178 214
178 181 178 179 183 187 189 181 175 176 193 198 196 201 204 214 204 184 173 175 200 229 246 235 213 206 217 204 199 208 224 238 223 222 226 229 218 204 191 189 189 192 200
159 144 150 164 179 179 171 171 168 174 179 189 201 209 208 213 208 189 179 186 200 212 227 239 244 234 224 215 208 215 225 219 209 210 216 222 223 222 215 206 200 196 200
126 121 130 140 157 151 148 164 165 168 179 194 197 214 230 229 213 210 203 209 206 203 219 228 238 235 230 224 222 231 222 205 192 194 208 220 224 230 231 224 214 212 217
118 128 122 111 119 126 156 162 157 169 182 196 197 214 236 239 234 228 217 217 213 213 226 224 229 231 229 235 237 232 218 202 196 210 223 230 229 230 226 227 235 230 238
134 128 100 99 85 73 111 165 166 182 192 197 205 219 229 238 241 234 231 230 225 230 244 243 232 230 230 237 246 240 222 210 207 220 229 233 225 214 216 212 217 219 234
138 132 122 115 115 94 68 80 185 213 211 202 209 202 203 227 239 223 205 214 218 219 208 224 240 244 252 257 251 241 227 218 223 228 224 225 225 223 228 220 211 208 220
158 158 154 152 149 150 137 48 22 21 352 201 190 188 222 236 233 214 209 207 200 185 168 212 233 233 234 238 238 238 229 226 230 227 226 225 224 225 231 227 213 215 228
171 176 175 174 174 184 180 174 200 0 19 20 290 206 202 214 216 207 200 196 187 164 179 220 233 238 239 236 234 228 230 233 228 223 227 229 228 228 226 229 224 224 232
156 172 182 191 191 195 193 194 187 187 240 321 327 274 249 245 231 200 175 145 186 201 222 230 235 238 236 234 232 229 230 227 223 228 229 229 227 227 230 235 232 231 235
157 186 190 195 198 195 183 176 179 187 197 224 275 301 283 276 286 223 157 184 220 228 232 239 244 244 244 236 233 228 221 221 225 226 230 233 232 228 234 239 237 238 233
185 215 214 192 195 182 165 171 182 192 203 216 229 235 240 160 278 264 229 233 237 245 244 244 253 253 246 239 234 231 226 229 229 229 231 232 234 233 235 238 236 238 236
184 215 214 179 177 179 180 187 194 196 208 222 239 240 210 201 226 237 236 237 236 241 248 250 252 250 248 244 239 233 228 234 233 233 235 235 235 238 239 238 239 237 237
162 186 184 184 182 188 194 195 189 193 203 219 259 274 248 236 240 248 247 247 243 236 233 234 245 244 234 232 229 226 230 238 240 241 240 241 240 238 236 236 241 246 239
122 132 137 166 167 156 144 141 153 162 188 221 230 250 248 256 261 256 253 254 253 247 237 228 238 257 257 248 232 222 225 234 238 236 238 239 238 236 232 233 237 244 244
98 102 105 103 119 123 121 114 120 122 115 84 355 328 280 271 276 273 274 276 272 269 261 245 234 240 249 257 251 239 237 241 239 237 235 238 241 237 233 237 241 245 245
96 103 114 118 120 116 107 101 86 79 74 68 46 15 358 339 327 318 312 309 298 291 287 277 254 243 247 249 254 260 258 247 242 241 238 234 235 237 238 238 242 245 241
85 86 86 90 94 99 100 92 82 85 78 56 31 8 1 355 336 326 326 327 323 324 318 311 293 284 272 265 263 258 258 253 250 247 238 232 229 236 238 240 243 241 240
Height
1516 1518 1520 1521 1523 1524 1524 1525 1526 1527 1528 1528 1528 1528 1528 1528 1528 1528 1528 1529 1529 1529 1528 1528 1528 1528 1527 1527 1527 1527 1527 1526 1526 1525 1526 1526 1526 1527 1527 1526 1526 1526 1526
1514 1516 1517 1519 1520 1521 1522 1522 1523 1524 1525 1526 1526 1526 1526 1526 1526 1526 1526 1526 1526 1526 1526 1526 1525 1525 1525 1525 1524 1524 1524 1524 1524 1523 1523 1524 1524 1525 1525 1525 1525 1525 1525
1510 1512 1515 1516 1517 1518 1519 1520 1521 1522 1523 1523 1524 1524 1524 1523 1523 1523 1523 1523 1523 1523 1523 1523 1523 1522 1522 1521 1521 1521 1521 1521 1521 1521 1521 1521 1522 1522 1523 1523 1523 1523 1523
1507 1509 1511 1513 1515 1516 1517 1518 1518 1519 1520 1520 1521 1521 1521 1521 1520 1520 1520 1520 1521 1521 1520 1520 1519 1519 1519 1518 1518 1518 1518 1517 1518 1518 1518 1518 1519 1519 1520 1521 1521 1521 1521
1504 1506 1508 1510 1512 1513 1514 1515 1516 1517 1517 1517 1518 1518 1518 1517 1517 1517 1517 1517 1517 1517 1517 1516 1516 1516 1515 1515 1515 1515 1515 1514 1514 1515 1515 1515 1515 1516 1517 1518 1518 1519 1519
1502 1503 1505 1507 1509 1510 1512 1513 1513 1514 1514 1514 1514 1514 1514 1514 1514 1513 1514 1514 1514 1513 1513 1513 1513 1513 1512 1512 1512 1512 1512 1511 1511 1511 1511 1512 1512 1513 1514 1515 1516 1516 1516
1500 1502 1503 1505 1506 1507 1509 1510 1510 1510 1511 1511 1511 1511 1510 1510 1510 1510 1510 1510 1510 1510 1510 1510 1510 1509 1509 1509 1508 1508 1508 1508 1509 1509 1508 1508 1509 1510 1511 1512 1512 1513 1513
1496 1499 1500 1502 1503 1504 1505 1506 1506 1506 1506 1507 1507 1507 1507 1506 1506 1506 1507 1507 1506 1506 1506 1506 1507 1506 1506 1506 1506 1505 1505 1505 1505 1505 1505 1506 1506 1507 1507 1508 1509 1510 1511
1493 1496 1497 1499 1499 1500 1501 1502 1502 1502 1502 1502 1503 1503 1503 1503 1503 1503 1503 1503 1503 1503 1503 1503 1503 1503 1503 1503 1502 1502 1502 1502 1502 1502 1502 1502 1503 1503 1503 1504 1505 1505 1506
1490 1492 1494 1496 1496 1497 1498 1499 1499 1499 1499 1499 1500 1500 1500 1500 1500 1499 1500 1499 1499 1500 1500 1500 1500 1499 1499 1499 1499 1498 1498 1498 1499 1498 1499 1499 1499 1499 1499 1500 1501 1501 1501
1488 1490 1491 1493 1494 1494 1494 1495 1496 1496 1496 1496 1496 1496 1497 1497 1497 1496 1496 1496 1495 1496 1496 1496 1495 1496 1495 1495 1495 1495 1494 1494 1494 1494 1494 1495 1495 1495 1495 1495 1496 1497 1497
1485 1487 1488 1490 1491 1491 1491 1491 1492 1492 1492 1492 1493 1492 1493 1493 1493 1493 1493 1493 1492 1492 1492 1492 1491 1491 1491 1491 1491 1491 1491 1491 1490 1490 1490 1490 1490 1490 1490 1491 1491 1492 1493
1484 1485 1486 1487 1488 1488 1489 1488 1489 1489 1489 1489 1489 1488 1488 1489 1489 1489 1489 1489 1489 1488 1488 1487 1488 1487 1486 1486 1486 1486 1486 1486 1485 1485 1484 1485 1485 1486 1486 1486 1487 1488 1488
1481 1482 1483 1484 1484 1484 1486 1486 1485 1485 1486 1485 1485 1485 1485 1485 1485 1484 1484 1484 1484 1484 1483 1483 1483 1482 1482 1481 1481 1481 1481 1481 1481 1481 1480 1481 1481 1481 1481 1482 1482 1483 1483
1478 1478 1480 1481 1481 1482 1483 1483 1482 1482 1483 1482 1482 1481 1481 1480 1480 1481 1481 1480 1480 1480 1479 1478 1478 1477 1477 1476 1476 1476 1476 1477 1476 1476 1476 1476 1476 1476 1477 1477 1478 1478 1478
1474 1475 1476 1477 1478 1479 1479 1479 1479 1480 1480 1479 1479 1479 1478 1478 1477 1477 1477 1476 1476 1476 1475 1474 1473 1473 1472 1472 1471 1471 1471 1471 1471 1471 1472 1471 1471 1471 1472 1472 1472 1473 1472
1470 1471 1473 1474 1475 1476 1476 1476 1476 1476 1476 1476 1476 1475 1475 1474 1473 1473 1473 1472 1472 1471 1470 1469 1468 1468 1468 1467 1467 1467 1466 1467 1467 1467 1467 1466 1467 1467 1467 1467 1467 1467 1467
1467 1468 1469 1470 1471 1472 1472 1472 1472 1472 1472 1472 1472 1472 1471 1471 1470 1469 1469 1468 1467 1466 1465 1464 1464 1463 1463 1462 1462 1462 1462 1462 1462 1462 1462 1462 1462 1462 1462 1461 1462 1462 1462
1464 1465 1466 1467 1467 1468 1468 1469 1469 1469 1469 1469 1468 1468 1468 1467 1466 1466 1465 1464 1463 1462 1461 1461 1460 1459 1458 1458 1458 1458 1457 1457 1457 1457 1457 1457 1457 1457 1456 1456 1456 1456 1457
1462 1463 1463 1463 1464 1464 1465 1465 1466 1466 1465 1465 1465 1464 1464 1463 1462 1462 1461 1460 1459 1458 1457 1456 1456 1455 1454 1453 1453 1453 1452 1452 1452 1452 1452 1452 1451 1451 1451 1451 1450 1451 1450
1459 1459 1459 1460 1460 1461 1462 1462 1462 1462 1462 1462 1461 1461 1461 1460 1459 1458 1458 1457 1456 1455 1454 1453 1452 1451 1450 1449 1449 1448 1447 1447 1447 1447 1447 1446 1446 1446 1446 1446 1445 1445 1445
1456 1456 1456 1457 1458 1459 1459 1459 1459 1459 1459 1459 1458 1458 1458 1457 1456 1455 1455 1454 1453 1452 1451 1450 1448 1447 1446 1445 1444 1443 1443 1442 1441 1441 1441 1441 1441 1440 1440 1440 1440 1440 1439
1453 1453 1454 1454 1455 1455 1456 1456 1456 1456 1456 1456 1455 1455 1454 1453 1453 1452 1451 1450 1449 1448 1447 1446 1444 1443 1442 1441 1440 1439 1438 1437 1437 1437 1436 1436 1436 1435 1435 1435 1435 1435 1434
1451 1451 1451 1451 1452 1452 1452 1453 1453 1453 1453 1453 1452 1452 1451 1450 1450 1449 1448 1447 1445 1444 1443 1442 1441 1439 1438 1437 1436 1435 1434 1433 1433 1433 1432 1432 1431 1430 1430 1430 1430 1430 1430
1449 1449 1449 1449 1449 1449 1450 1450 1450 1450 1450 1450 1450 1449 1448 1447 1446 1445 1444 1443 1441 1440 1439 1438 1437 1435 1434 1433 1431 1430 1429 1429 1428 1428 1428 1427 1426 1426 1425 1425 1425 1425 1425
1447 1447 1447 1446 1447 1447 1447 1448 1448 1447 1447 1447 1447 1446 1444 1444 1443 1442 1440 1439 1438 1436 1435 1434 1433 1431 1430 1429 1427 1426 1425 1424 1424 1423 1423 1422 1421 1421 1421 1421 1421 1421 1421